EVA222 GCLA-GMMN

Flight info

Callsign EVA222
Flight time 1h 23m
Altitude 34000
Route KORAL UG5 SONSO UN871 ESS UG5 BARAM DCT NIKZO
Aircraft MD11/H-SDE1E2E3FGHIJ2J3J4J5M1RWXY/LB1D1

Departure

Time 2026-04-23 20:18
Airport La Palma Airport (GCLA)

Arrival

Time 2026-04-23 21:41
Airport Mohammed V International Airport (GMMN)
Time Latitude Longitude Altitude Speed Heading
2026-04-23 20:06 28.62063 -17.75357 125 ft 0 kts 89°
2026-04-23 20:10 28.62063 -17.75368 126 ft 2 kts 89°
2026-04-23 20:10 28.62063 -17.75386 127 ft 2 kts 89°
2026-04-23 20:11 28.62063 -17.75399 129 ft 0 kts 89°
2026-04-23 20:11 28.62062 -17.75413 131 ft 2 kts 71°
2026-04-23 20:11 28.62055 -17.75427 133 ft 2 kts 46°
2026-04-23 20:11 28.62043 -17.75437 133 ft 2 kts 22°
2026-04-23 20:12 28.62030 -17.75441 134 ft 0 kts
2026-04-23 20:12 28.62025 -17.75441 134 ft 0 kts 358°
2026-04-23 20:14 28.62027 -17.75441 134 ft 1 kts 358°
2026-04-23 20:14 28.62059 -17.75442 133 ft 7 kts 358°
2026-04-23 20:14 28.62122 -17.75443 132 ft 11 kts 359°
2026-04-23 20:15 28.62214 -17.75443 127 ft 16 kts
2026-04-23 20:15 28.62349 -17.75443 117 ft 23 kts 359°
2026-04-23 20:15 28.62535 -17.75449 105 ft 28 kts 354°
2026-04-23 20:15 28.62697 -17.75555 108 ft 25 kts 340°
2026-04-23 20:16 28.62878 -17.75565 105 ft 26 kts 359°
2026-04-23 20:16 28.63069 -17.75569 100 ft 28 kts 358°
2026-04-23 20:16 28.63285 -17.75572 90 ft 32 kts 359°
2026-04-23 20:16 28.63515 -17.75574 78 ft 27 kts
2026-04-23 20:17 28.63619 -17.75571 71 ft 6 kts 287°
2026-04-23 20:17 28.63600 -17.75590 72 ft 1 kts 175°
2026-04-23 20:17 28.63599 -17.75589 72 ft 0 kts 175°
2026-04-23 20:17 28.63556 -17.75586 76 ft 30 kts 175°
2026-04-23 20:18 28.63039 -17.75570 101 ft 114 kts 178°
2026-04-23 20:18 28.62001 -17.75545 155 ft 178 kts 178°
2026-04-23 20:18 28.60766 -17.75520 841 ft 179 kts 179°
2026-04-23 20:18 28.59489 -17.75441 1483 ft 188 kts 163°
2026-04-23 20:19 28.58350 -17.74711 1962 ft 199 kts 130°
2026-04-23 20:19 28.57535 -17.73403 2380 ft 207 kts 118°
2026-04-23 20:19 28.56884 -17.71898 2751 ft 220 kts 108°
2026-04-23 20:19 28.56352 -17.70234 3282 ft 227 kts 107°
2026-04-23 20:20 28.55778 -17.68545 3911 ft 231 kts 112°
2026-04-23 20:20 28.55060 -17.66926 4623 ft 234 kts 116°
2026-04-23 20:20 28.54234 -17.65313 5297 ft 238 kts 118°
2026-04-23 20:20 28.53372 -17.63710 5977 ft 241 kts 119°
2026-04-23 20:21 28.52488 -17.62091 6632 ft 244 kts 120°
2026-04-23 20:21 28.51591 -17.60449 7275 ft 247 kts 120°
2026-04-23 20:21 28.50679 -17.58783 7926 ft 251 kts 121°
2026-04-23 20:21 28.49760 -17.57109 8543 ft 255 kts 121°
2026-04-23 20:22 28.48814 -17.55383 9184 ft 258 kts 121°
2026-04-23 20:22 28.47863 -17.53649 9822 ft 262 kts 122°
2026-04-23 20:22 28.46902 -17.51897 10455 ft 265 kts 122°
2026-04-23 20:22 28.45933 -17.50132 11080 ft 268 kts 122°
2026-04-23 20:23 28.44941 -17.48321 11664 ft 272 kts 122°
2026-04-23 20:23 28.43937 -17.46463 12243 ft 277 kts 118°
2026-04-23 20:23 28.43253 -17.44434 12712 ft 283 kts 97°
2026-04-23 20:23 28.43248 -17.42176 13143 ft 289 kts 79°
2026-04-23 20:24 28.43558 -17.39892 13606 ft 297 kts 79°
2026-04-23 20:24 28.43866 -17.37492 13729 ft 320 kts 81°
2026-04-23 20:24 28.44138 -17.34906 13841 ft 342 kts 82°
2026-04-23 20:24 28.44390 -17.32139 14102 ft 361 kts 83°
2026-04-23 20:25 28.44640 -17.29231 14377 ft 383 kts 83°
2026-04-23 20:25 28.44909 -17.26121 14448 ft 409 kts 83°
2026-04-23 20:25 28.45191 -17.22843 14794 ft 425 kts 83°
2026-04-23 20:25 28.45480 -17.19490 15412 ft 433 kts 83°
2026-04-23 20:26 28.45779 -17.16058 16103 ft 439 kts 83°
2026-04-23 20:26 28.46075 -17.12640 16753 ft 445 kts 82°
2026-04-23 20:26 28.46386 -17.09104 17433 ft 450 kts 82°
2026-04-23 20:26 28.46699 -17.05586 18058 ft 456 kts 82°
2026-04-23 20:27 28.47020 -17.01964 18698 ft 461 kts 82°
2026-04-23 20:27 28.47341 -16.98323 19334 ft 466 kts 82°
2026-04-23 20:27 28.47667 -16.94658 19933 ft 471 kts 82°
2026-04-23 20:27 28.47995 -16.90962 20561 ft 475 kts 82°
2026-04-23 20:28 28.48328 -16.87229 21137 ft 480 kts 82°
2026-04-23 20:28 28.48665 -16.83468 21752 ft 484 kts 82°
2026-04-23 20:28 28.49009 -16.79632 22310 ft 490 kts 82°
2026-04-23 20:28 28.49356 -16.75778 22879 ft 494 kts 82°
2026-04-23 20:29 28.49707 -16.71873 23461 ft 499 kts 82°
2026-04-23 20:29 28.50064 -16.67937 24035 ft 503 kts 82°
2026-04-23 20:29 28.50421 -16.64024 24609 ft 506 kts 82°
2026-04-23 20:29 28.50783 -16.60043 25164 ft 510 kts 82°
2026-04-23 20:30 28.51151 -16.56028 25707 ft 514 kts 82°
2026-04-23 20:30 28.51899 -16.47876 26828 ft 520 kts 82°
2026-04-23 20:30 28.52246 -16.43826 27360 ft 523 kts 82°
2026-04-23 20:31 28.52587 -16.39681 27812 ft 528 kts 82°
2026-04-23 20:31 28.52928 -16.35555 28290 ft 531 kts 82°
2026-04-23 20:31 28.53281 -16.31361 28734 ft 534 kts 82°
2026-04-23 20:31 28.53660 -16.27185 29133 ft 536 kts 80°
2026-04-23 20:32 28.54402 -16.23024 29698 ft 532 kts 72°
2026-04-23 20:32 28.55385 -16.18997 30313 ft 530 kts 71°
2026-04-23 20:32 28.56399 -16.14934 30880 ft 529 kts 71°
2026-04-23 20:32 28.57392 -16.10853 31392 ft 529 kts 71°
2026-04-23 20:33 28.58365 -16.06782 31895 ft 528 kts 72°
2026-04-23 20:33 28.59306 -16.02798 32347 ft 527 kts 72°
2026-04-23 20:33 28.60251 -15.98768 32819 ft 526 kts 72°
2026-04-23 20:33 28.61190 -15.94761 33179 ft 526 kts 71°
2026-04-23 20:34 28.62125 -15.90767 33512 ft 527 kts 71°
2026-04-23 20:34 28.63075 -15.86726 33843 ft 527 kts 71°
2026-04-23 20:34 28.64017 -15.82717 34079 ft 526 kts 71°
2026-04-23 20:34 28.64965 -15.78694 34077 ft 526 kts 71°
2026-04-23 20:35 28.66846 -15.70714 34092 ft 526 kts 71°
2026-04-23 20:35 28.68753 -15.62647 34092 ft 526 kts 71°
2026-04-23 20:36 28.70651 -15.54643 34097 ft 527 kts 71°
2026-04-23 20:36 28.72563 -15.46586 34099 ft 527 kts 71°
2026-04-23 20:37 28.74470 -15.38576 34091 ft 526 kts 71°
2026-04-23 20:37 28.76384 -15.30545 34095 ft 527 kts 72°
2026-04-23 20:38 28.78220 -15.22441 34090 ft 528 kts 72°
2026-04-23 20:38 28.80057 -15.14371 34087 ft 528 kts 72°
2026-04-23 20:39 28.81902 -15.06323 34087 ft 528 kts 72°
2026-04-23 20:39 28.83764 -14.98231 34089 ft 528 kts 72°
2026-04-23 20:40 28.85632 -14.90143 34083 ft 529 kts 72°
2026-04-23 20:40 28.87497 -14.82076 34092 ft 529 kts 72°
2026-04-23 20:41 28.89288 -14.73936 34089 ft 530 kts 72°
2026-04-23 20:41 28.91068 -14.65825 34096 ft 529 kts 72°
2026-04-23 20:42 28.92865 -14.57721 34092 ft 528 kts 72°
2026-04-23 20:42 28.94669 -14.49610 34087 ft 528 kts 72°
2026-04-23 20:43 28.96482 -14.41469 34089 ft 528 kts 72°
2026-04-23 20:43 28.98287 -14.33407 34080 ft 528 kts 72°
2026-04-23 20:44 29.00103 -14.25306 34085 ft 528 kts 72°
2026-04-23 20:44 29.01930 -14.17175 34086 ft 529 kts 72°
2026-04-23 20:45 29.03751 -14.09085 34091 ft 528 kts 72°
2026-04-23 20:45 29.05587 -14.00968 34092 ft 528 kts 72°
2026-04-23 20:46 29.07427 -13.92837 34089 ft 529 kts 72°
2026-04-23 20:46 29.09221 -13.84712 34088 ft 530 kts 72°
2026-04-23 20:47 29.10987 -13.76535 34089 ft 530 kts 72°
2026-04-23 20:47 29.12769 -13.68359 34084 ft 531 kts 72°
2026-04-23 20:48 29.14554 -13.60219 34085 ft 532 kts 72°
2026-04-23 20:48 29.16500 -13.52100 34084 ft 529 kts 65°
2026-04-23 20:49 29.20035 -13.44837 34103 ft 519 kts 48°
2026-04-23 20:49 29.24306 -13.38213 34091 ft 518 kts 48°
2026-04-23 20:50 29.28458 -13.31504 34085 ft 516 kts 50°
2026-04-23 20:50 29.32563 -13.24746 34080 ft 518 kts 50°
2026-04-23 20:51 29.36651 -13.17994 34081 ft 519 kts 50°
2026-04-23 20:51 29.40781 -13.11182 34079 ft 519 kts 50°
2026-04-23 20:52 29.44897 -13.04398 34069 ft 520 kts 50°
2026-04-23 20:52 29.49020 -12.97608 34082 ft 520 kts 50°
2026-04-23 20:53 29.53175 -12.90773 34078 ft 519 kts 50°
2026-04-23 20:53 29.57294 -12.84009 34079 ft 520 kts 50°
2026-04-23 20:54 29.61447 -12.77186 34072 ft 521 kts 50°
2026-04-23 20:54 29.65584 -12.70396 34080 ft 521 kts 50°
2026-04-23 20:55 29.69736 -12.63537 34081 ft 522 kts 50°
2026-04-23 20:55 29.73848 -12.56666 34073 ft 523 kts 50°
2026-04-23 20:56 29.77921 -12.49732 34076 ft 523 kts 51°
2026-04-23 20:56 29.81993 -12.42794 34077 ft 524 kts 51°
2026-04-23 20:57 29.86075 -12.35865 34074 ft 525 kts 50°
2026-04-23 20:57 29.90175 -12.28905 34080 ft 525 kts 51°
2026-04-23 20:58 29.94281 -12.21946 34072 ft 526 kts 51°
2026-04-23 20:58 29.98395 -12.14983 34069 ft 526 kts 51°
2026-04-23 20:59 30.02480 -12.08064 34068 ft 525 kts 51°
2026-04-23 20:59 30.06551 -12.01081 34069 ft 526 kts 51°
2026-04-23 21:00 30.10643 -11.94069 34068 ft 527 kts 51°
2026-04-23 21:00 30.14729 -11.87076 34064 ft 527 kts 51°
2026-04-23 21:01 30.18847 -11.80037 34070 ft 528 kts 51°
2026-04-23 21:01 30.22972 -11.72998 34075 ft 528 kts 50°
2026-04-23 21:02 30.27071 -11.66009 34070 ft 529 kts 50°
2026-04-23 21:02 30.31193 -11.58981 34078 ft 530 kts 50°
2026-04-23 21:03 30.35350 -11.51909 34077 ft 531 kts 50°
2026-04-23 21:03 30.39524 -11.44808 34092 ft 532 kts 50°
2026-04-23 21:04 30.43701 -11.37715 34092 ft 533 kts 50°
2026-04-23 21:04 30.47865 -11.30642 34084 ft 532 kts 50°
2026-04-23 21:05 30.51982 -11.23486 34077 ft 533 kts 51°
2026-04-23 21:05 30.56050 -11.16348 34089 ft 533 kts 51°
2026-04-23 21:06 30.60148 -11.09189 34092 ft 533 kts 51°
2026-04-23 21:06 30.64263 -11.02014 34094 ft 533 kts 51°
2026-04-23 21:07 30.68347 -10.94894 34081 ft 531 kts 50°
2026-04-23 21:07 30.72462 -10.87736 34085 ft 531 kts 51°
2026-04-23 21:08 30.76566 -10.80605 34080 ft 533 kts 51°
2026-04-23 21:08 30.80688 -10.73440 34077 ft 533 kts 51°
2026-04-23 21:09 30.84818 -10.66274 34083 ft 534 kts 50°
2026-04-23 21:09 30.88941 -10.59122 34088 ft 534 kts 50°
2026-04-23 21:10 30.93091 -10.51937 34084 ft 533 kts 50°
2026-04-23 21:10 30.97181 -10.44750 34084 ft 534 kts 51°
2026-04-23 21:11 31.01229 -10.37501 34081 ft 535 kts 51°
2026-04-23 21:11 31.05276 -10.30280 34065 ft 534 kts 52°
2026-04-23 21:12 31.09364 -10.23007 34064 ft 535 kts 51°
2026-04-23 21:12 31.12748 -10.16993 34063 ft 535 kts 51°
2026-04-23 21:13 31.16822 -10.09762 34061 ft 535 kts 51°
2026-04-23 21:13 31.20890 -10.02547 34059 ft 535 kts 51°
2026-04-23 21:14 31.24989 -9.95280 34060 ft 535 kts 51°
2026-04-23 21:14 31.29083 -9.88039 34056 ft 535 kts 52°
2026-04-23 21:15 31.33169 -9.80811 34067 ft 535 kts 52°
2026-04-23 21:15 31.37292 -9.73529 34069 ft 536 kts 51°
2026-04-23 21:16 31.41986 -9.66933 34063 ft 526 kts 37°
2026-04-23 21:16 31.47615 -9.61623 34068 ft 520 kts 31°
2026-04-23 21:17 31.53362 -9.56389 34086 ft 519 kts 31°
2026-04-23 21:17 31.59026 -9.51145 34087 ft 519 kts 32°
2026-04-23 21:18 31.64690 -9.45867 34092 ft 520 kts 32°
2026-04-23 21:18 31.70354 -9.40594 34088 ft 521 kts 32°
2026-04-23 21:19 31.75999 -9.35342 34088 ft 520 kts 32°
2026-04-23 21:19 31.81703 -9.30036 34090 ft 520 kts 33°
2026-04-23 21:20 31.87371 -9.24765 34095 ft 521 kts 33°
2026-04-23 21:20 31.93062 -9.19475 34089 ft 521 kts 33°
2026-04-23 21:21 31.98739 -9.14201 34096 ft 521 kts 33°
2026-04-23 21:21 32.04455 -9.08896 34098 ft 521 kts 33°
2026-04-23 21:22 32.10136 -9.03626 34112 ft 517 kts 32°
2026-04-23 21:22 32.12964 -9.01053 34000 ft 519 kts 33°
2026-04-23 21:22 32.15815 -8.98375 34059 ft 524 kts 34°
2026-04-23 21:23 32.21482 -8.92960 34088 ft 524 kts 35°
2026-04-23 21:23 32.26765 -8.86938 34089 ft 530 kts 47°
2026-04-23 21:24 32.31263 -8.80037 34084 ft 532 kts 50°
2026-04-23 21:24 32.35709 -8.73099 34085 ft 531 kts 50°
2026-04-23 21:25 32.40208 -8.66151 34086 ft 531 kts 50°
2026-04-23 21:25 32.44670 -8.59272 33758 ft 527 kts 50°
2026-04-23 21:26 32.46917 -8.55821 32684 ft 533 kts 50°
2026-04-23 21:26 32.49163 -8.52372 31826 ft 533 kts 50°
2026-04-23 21:26 32.51429 -8.48891 31028 ft 532 kts 51°
2026-04-23 21:26 32.53680 -8.45430 30155 ft 532 kts 51°
2026-04-23 21:27 32.55944 -8.41955 29242 ft 532 kts 51°
2026-04-23 21:27 32.58191 -8.38505 28251 ft 533 kts 52°
2026-04-23 21:27 32.60452 -8.35033 27311 ft 532 kts 52°
2026-04-23 21:27 32.62720 -8.31551 26286 ft 533 kts 52°
2026-04-23 21:28 32.64987 -8.28075 25421 ft 528 kts 53°
2026-04-23 21:28 32.67209 -8.24667 24754 ft 520 kts 53°
2026-04-23 21:28 32.69392 -8.21320 24062 ft 513 kts 53°
2026-04-23 21:28 32.71649 -8.18074 23276 ft 507 kts 47°
2026-04-23 21:29 32.74308 -8.15367 22460 ft 502 kts 34°
2026-04-23 21:29 32.77319 -8.13391 21699 ft 494 kts 22°
2026-04-23 21:29 32.80524 -8.12027 20962 ft 487 kts 17°
2026-04-23 21:29 32.83712 -8.10758 20235 ft 481 kts 18°
2026-04-23 21:30 32.86853 -8.09426 19541 ft 475 kts 19°
2026-04-23 21:30 32.89909 -8.08043 18792 ft 469 kts 22°
2026-04-23 21:30 32.92741 -8.06180 17972 ft 466 kts 36°
2026-04-23 21:30 32.95096 -8.03605 17214 ft 460 kts 50°
2026-04-23 21:31 32.96836 -8.00449 16442 ft 453 kts 65°
2026-04-23 21:31 32.97831 -7.96976 15666 ft 444 kts 80°
2026-04-23 21:31 32.98399 -7.93396 14764 ft 437 kts 81°
2026-04-23 21:31 32.99117 -7.89928 13537 ft 431 kts 76°
2026-04-23 21:32 32.99997 -7.86617 12425 ft 423 kts 73°
2026-04-23 21:32 33.00973 -7.83355 11513 ft 408 kts 71°
2026-04-23 21:32 33.01951 -7.80271 11058 ft 384 kts 71°
2026-04-23 21:32 33.02873 -7.77426 10749 ft 360 kts 71°
2026-04-23 21:33 33.03750 -7.74737 10528 ft 336 kts 71°
2026-04-23 21:33 33.04568 -7.72241 10265 ft 312 kts 71°
2026-04-23 21:33 33.05327 -7.69892 9793 ft 301 kts 71°
2026-04-23 21:33 33.06071 -7.67576 9372 ft 298 kts 71°
2026-04-23 21:34 33.06809 -7.65287 8941 ft 295 kts 70°
2026-04-23 21:34 33.07539 -7.63027 8559 ft 289 kts 70°
2026-04-23 21:34 33.08240 -7.60867 8296 ft 273 kts 70°
2026-04-23 21:34 33.08904 -7.58820 8025 ft 263 kts 70°
2026-04-23 21:35 33.09560 -7.56798 7996 ft 257 kts 70°
2026-04-23 21:35 33.10207 -7.54802 7534 ft 258 kts 70°
2026-04-23 21:35 33.10966 -7.52910 6961 ft 252 kts 52°
2026-04-23 21:35 33.12261 -7.51670 6447 ft 234 kts 21°
2026-04-23 21:36 33.15292 -7.51837 5019 ft 220 kts 343°
2026-04-23 21:36 33.16744 -7.52342 4306 ft 212 kts 342°
2026-04-23 21:36 33.18062 -7.52801 4066 ft 188 kts 343°
2026-04-23 21:37 33.19262 -7.53213 3861 ft 170 kts 343°
2026-04-23 21:37 33.20394 -7.53600 3597 ft 166 kts 343°
2026-04-23 21:37 33.21492 -7.53977 3395 ft 163 kts 343°
2026-04-23 21:37 33.22592 -7.54355 3176 ft 163 kts 343°
2026-04-23 21:38 33.23650 -7.54718 2943 ft 154 kts 343°
2026-04-23 21:38 33.24667 -7.55067 2788 ft 151 kts 343°
2026-04-23 21:38 33.25676 -7.55417 2577 ft 152 kts 343°
2026-04-23 21:38 33.26694 -7.55794 2333 ft 152 kts 343°
2026-04-23 21:39 33.27697 -7.56147 2093 ft 151 kts 346°
2026-04-23 21:39 33.28708 -7.56470 1911 ft 150 kts 345°
2026-04-23 21:39 33.29724 -7.56832 1735 ft 151 kts 344°
2026-04-23 21:39 33.30722 -7.57205 1556 ft 151 kts 346°
2026-04-23 21:40 33.31738 -7.57539 1353 ft 150 kts 349°
2026-04-23 21:40 33.32749 -7.57856 1181 ft 150 kts 346°
2026-04-23 21:40 33.33769 -7.58202 952 ft 152 kts 345°
2026-04-23 21:40 33.34779 -7.58544 745 ft 152 kts 346°
2026-04-23 21:41 33.35760 -7.58875 661 ft 132 kts 346°
2026-04-23 21:41 33.36522 -7.59127 653 ft 103 kts 343°
2026-04-23 21:41 33.37063 -7.59317 651 ft 48 kts 345°
2026-04-23 21:41 33.37260 -7.59313 652 ft 23 kts 13°
2026-04-23 21:42 33.37415 -7.59265 654 ft 22 kts 15°
2026-04-23 21:42 33.37565 -7.59218 654 ft 22 kts 14°
2026-04-23 21:42 33.37715 -7.59172 654 ft 22 kts 14°
2026-04-23 21:42 33.37826 -7.59059 652 ft 22 kts 72°
2026-04-23 21:43 33.37868 -7.58868 647 ft 21 kts 88°
2026-04-23 21:43 33.37756 -7.58772 646 ft 22 kts 164°
2026-04-23 21:43 33.37603 -7.58721 647 ft 22 kts 164°
2026-04-23 21:43 33.37454 -7.58669 650 ft 22 kts 163°
2026-04-23 21:44 33.37305 -7.58618 651 ft 22 kts 164°
2026-04-23 21:44 33.37147 -7.58564 649 ft 24 kts 163°
2026-04-23 21:44 33.36971 -7.58503 644 ft 27 kts 163°
2026-04-23 21:44 33.36785 -7.58440 647 ft 27 kts 164°
2026-04-23 21:45 33.36609 -7.58381 652 ft 25 kts 164°
2026-04-23 21:45 33.36438 -7.58322 653 ft 25 kts 163°
2026-04-23 21:45 33.36283 -7.58267 655 ft 15 kts 158°
2026-04-23 21:45 33.36256 -7.58179 656 ft 12 kts 76°
2026-04-23 21:46 33.36270 -7.58107 658 ft 5 kts 98°
2026-04-23 21:46 33.36246 -7.58072 658 ft 4 kts 155°
2026-04-23 21:46 33.36213 -7.58067 658 ft 5 kts 167°
2026-04-23 21:46 33.36178 -7.58052 659 ft 5 kts 148°
2026-04-23 21:47 33.36165 -7.58012 659 ft 6 kts 85°
2026-04-23 21:47 33.36173 -7.57970 659 ft 0 kts 75°